Location: Godiavel Galaoual
(15.2485°N, 12.6604°W)
Time: 11:50:02
(UTC+00:00)

LightSail 2 - Pass Details

Date: 07 June 2020
Orbit: 692 x 720 km, 24.0° (Epoch: 14 July)

Event Time Altitude Azimuth Distance (km) Brightness Sun altitude
Exits shadow 03:10:59 14° 77° (ENE) 1,892 7.8 -38.6°
Drops below altitude 10° 03:11:50 10° 82° (E) 2,181 8.1 -38.4°
Sets 03:14:24 0° 89° (E) 3,104 9.0 -38.0°
